Temperature
30 30 29 30 31 30 29 28 26 25 26 26 24 22 22 22 23 23 23 22 21 20 20 19 19 19 18 18 18 18 18 18 18 17 17 17 17 16 16 16 15 15 14 13
30 30 31 32 31 30 29 27 26 26 27 27 25 23 22 23 23 23 23 22 21 20 20 19 19 19 18 18 18 18 18 18 18 17 17 17 16 16 16 16 15 14 14 13
31 31 32 31 31 29 28 28 27 27 27 27 25 22 22 22 23 23 23 22 21 21 20 20 19 19 19 18 19 18 18 18 18 17 17 16 16 16 16 16 15 14 14 13
31 32 32 31 30 30 28 29 29 28 26 23 24 22 21 21 23 24 23 23 22 21 21 20 20 19 19 19 19 19 18 18 17 17 16 16 16 16 16 15 15 14 14 13
31 32 31 30 31 31 30 30 28 26 24 22 23 23 23 23 23 24 24 23 23 22 21 21 20 20 20 20 19 19 18 18 17 17 16 16 16 16 15 15 15 14 14 13
31 32 32 32 32 31 30 29 25 23 21 20 23 24 23 24 25 25 25 24 23 23 22 22 21 21 21 20 20 19 19 18 17 17 16 16 15 15 15 15 14 14 13 13
30 30 31 31 31 30 29 27 23 21 20 21 25 26 26 27 27 27 26 25 24 23 23 22 22 22 21 21 20 20 19 18 17 16 16 15 15 15 14 14 14 13 13 13
28 27 29 31 31 30 30 29 27 25 25 25 27 27 27 28 28 27 26 26 25 24 24 23 23 22 22 21 21 20 19 18 17 16 16 15 15 15 14 14 14 13 13 13
29 29 31 31 32 31 30 30 30 29 28 26 27 28 27 28 28 28 27 26 26 25 25 24 23 23 22 21 21 20 19 18 17 17 16 16 15 15 14 14 14 13 13 12
30 29 30 31 31 31 31 30 30 29 27 26 25 26 27 27 27 28 28 27 26 26 25 25 24 23 22 22 21 20 19 18 17 17 16 16 15 15 14 13 13 13 13 12
31 29 29 30 29 29 29 29 29 29 28 26 24 25 29 28 28 28 28 27 27 27 26 25 24 24 23 22 21 20 19 18 17 16 16 16 15 14 14 13 13 12 12 12
31 30 28 28 28 28 29 29 29 28 27 28 27 27 30 30 29 29 29 28 27 27 27 26 25 24 23 22 21 20 19 18 17 17 16 15 15 14 14 13 13 12 12 12
30 28 27 26 24 24 26 28 29 29 28 28 27 26 29 29 29 29 29 28 28 27 26 26 25 23 22 22 21 20 19 18 18 17 16 16 15 14 14 13 13 12 12 12
30 28 27 25 24 23 24 26 28 29 28 27 27 28 28 29 29 29 29 28 28 27 26 25 24 23 22 21 21 20 19 19 18 17 16 16 15 15 14 14 13 13 12 12
30 28 28 28 28 26 27 28 29 29 29 28 29 29 29 29 29 29 29 28 27 27 26 25 24 23 22 21 20 20 19 18 18 17 16 16 15 15 14 14 13 13 13 12
29 28 28 28 28 28 28 29 29 30 30 29 29 29 30 29 29 29 28 28 27 27 26 25 24 23 21 21 20 19 19 18 18 17 17 16 16 15 15 14 14 13 13 12
28 28 27 27 28 28 26 28 29 29 30 29 28 29 29 29 29 28 28 28 27 27 26 25 24 23 22 21 20 20 19 18 18 17 17 16 16 15 15 14 14 13 13 13
28 27 27 27 27 26 28 28 29 28 29 29 29 29 29 29 28 28 28 27 27 26 26 25 24 23 22 21 20 20 19 18 18 18 17 17 16 15 15 15 14 14 13 13
28 27 27 27 27 27 27 27 27 26 26 28 28 28 28 28 28 28 27 27 26 26 26 25 24 24 23 22 21 20 19 18 18 18 17 17 16 16 15 15 14 14 13 13
27 26 26 26 26 26 26 25 25 25 24 26 26 27 27 27 26 26 26 26 26 26 25 25 24 24 23 22 21 20 19 19 18 18 17 17 16 16 15 15 15 14 14 13
24 25 25 25 26 26 26 26 25 23 22 24 25 25 26 25 25 25 25 25 25 25 24 24 24 24 23 22 22 21 20 19 19 18 17 17 16 16 16 15 15 14 14 13
25 25 25 25 24 23 23 24 23 22 23 23 24 24 24 24 24 24 24 23 23 23 23 23 23 23 22 22 21 20 20 19 18 17 17 16 16 16 15 15 15 14 14 13
27 27 26 25 24 21 21 21 21 22 22 22 23 23 23 23 22 22 21 21 21 21 21 21 21 21 21 21 20 20 19 18 17 17 17 16 16 16 16 15 15 14 13 13
27 27 25 24 22 21 21 21 22 22 22 22 22 21 21 21 21 20 20 19 19 19 19 19 20 19 19 19 19 18 18 17 17 16 16 16 15 15 15 15 14 14 13 13
27 26 25 23 22 20 20 21 21 21 21 21 21 20 20 20 19 19 18 18 18 18 18 18 18 18 18 18 17 17 17 16 16 15 15 15 15 15 14 14 14 14 14 13
27 26 25 23 22 22 20 21 21 21 20 20 19 19 19 18 18 18 17 17 16 16 16 16 16 16 16 16 16 16 15 15 15 14 14 14 14 14 14 14 14 14 14 14
Wind_Speed
14 12 11 11 10 7 5 3 1 4 7 4 2 6 7 8 6 7 10 10 10 10 11 10 10 11 10 8 8 7 7 6 3 2 0 0 1 1 1 3 7 4 4 5
13 11 11 10 9 7 6 6 4 4 5 3 2 5 7 8 7 6 9 10 11 10 11 11 10 10 10 9 8 7 7 6 4 3 1 1 1 3 1 2 4 3 3 4
11 7 5 8 8 7 6 6 7 6 3 1 1 1 2 1 4 6 8 10 11 12 12 12 11 11 11 10 10 9 8 7 6 4 3 2 1 3 1 1 2 4 3 2
10 7 6 8 8 7 5 6 6 6 3 2 3 1 4 6 7 7 8 10 11 12 12 12 12 12 11 11 11 9 8 7 6 5 3 3 3 3 2 1 2 2 1 3
10 10 8 8 7 8 7 6 9 11 7 5 5 2 4 8 9 9 10 10 11 13 13 13 13 12 11 11 11 10 9 7 6 5 4 3 4 3 3 3 3 2 4 4
12 11 8 7 5 4 7 5 9 10 6 3 9 5 5 7 9 11 11 11 12 13 13 13 13 11 9 9 9 10 10 8 7 6 5 4 3 2 3 4 4 4 4 2
10 8 6 8 7 3 7 5 2 1 0 6 12 3 6 8 9 10 13 13 13 13 13 13 12 11 10 9 9 9 11 9 7 6 5 4 3 3 5 5 5 3 3 3
8 6 6 9 8 6 8 8 6 6 2 4 5 5 9 10 9 9 12 13 13 13 13 13 13 11 10 10 9 8 9 9 8 6 5 4 2 3 3 1 3 4 4 4
7 5 7 7 7 8 7 9 9 7 7 3 1 8 11 10 10 9 10 13 13 13 13 13 12 11 10 9 8 8 9 8 7 6 6 5 5 4 4 4 4 5 3 4
7 10 6 5 7 8 8 9 8 7 6 3 4 2 7 10 10 10 10 11 12 12 13 13 12 11 10 9 8 8 9 7 6 5 5 5 6 6 6 5 5 5 5 5
7 9 8 6 7 9 7 7 6 6 7 5 1 0 7 9 10 10 11 12 12 12 12 12 11 10 10 10 10 9 8 7 6 6 5 3 3 4 4 5 6 6 6 6
7 8 9 7 10 13 9 9 7 5 6 7 4 4 5 4 8 8 9 11 10 9 9 10 11 10 9 9 11 10 9 9 8 7 6 6 6 5 6 6 6 5 6 6
7 6 9 7 10 12 12 12 11 7 5 6 6 1 4 3 4 6 5 7 8 8 6 7 10 10 9 9 9 10 10 9 9 8 8 7 7 7 7 6 6 5 6 6
5 9 12 11 5 8 10 14 12 10 7 6 6 3 6 5 5 6 6 6 7 8 7 6 8 9 8 8 8 7 8 7 7 7 7 7 7 6 6 6 5 5 6 6
6 10 13 13 8 10 13 14 11 10 9 9 8 6 2 3 4 3 4 6 6 7 9 8 8 9 8 8 8 7 7 7 6 6 6 6 6 6 6 6 6 6 6 8
7 9 13 15 12 12 14 13 10 10 9 8 7 4 4 5 3 1 1 3 4 6 8 10 10 11 11 9 9 9 8 8 7 7 6 6 6 6 6 6 6 6 6 7
10 9 12 14 14 11 10 10 9 8 5 5 3 1 2 1 1 0 2 3 4 5 6 8 10 11 11 11 10 10 9 8 8 8 8 7 6 7 7 7 6 6 6 6
9 8 8 13 15 16 6 3 4 5 3 3 3 2 1 2 1 2 3 3 2 3 4 6 8 10 12 12 12 10 10 10 9 9 9 8 8 7 7 6 6 6 6 6
7 7 9 12 14 12 7 6 6 6 6 7 5 5 6 5 4 2 2 0 2 3 3 5 7 10 12 13 12 12 11 11 11 11 10 9 8 7 6 6 6 6 6 7
7 6 9 12 14 14 3 3 2 1 2 9 8 9 9 8 5 3 4 2 3 2 2 3 6 7 9 11 12 13 13 11 12 11 10 9 7 7 6 6 6 6 6 7
10 9 11 13 14 6 6 3 2 2 1 8 9 8 8 7 7 8 8 7 6 4 2 2 3 4 5 8 9 10 11 11 10 9 8 8 7 7 7 7 7 7 8 9
11 11 11 9 10 2 7 6 5 4 5 8 10 11 10 10 10 11 11 11 10 9 7 5 2 2 1 5 8 8 8 6 6 6 7 7 7 8 9 8 8 8 9 10
7 7 4 2 2 6 6 6 4 4 6 7 9 11 11 11 11 12 12 12 11 11 10 8 6 4 3 0 4 6 6 5 6 7 7 7 7 7 7 7 8 9 9 11
5 4 4 2 7 9 8 6 6 7 7 8 10 11 12 12 12 13 12 13 13 13 12 11 10 8 6 5 2 3 4 5 6 7 7 7 7 9 9 9 10 10 10 10
7 3 5 2 8 11 8 5 7 9 10 10 11 12 13 13 13 13 12 12 12 12 12 12 11 9 9 7 6 4 2 3 5 6 7 8 10 10 10 10 11 11 10 9
5 3 2 2 5 7 8 6 7 9 9 10 10 11 13 13 12 12 11 11 11 12 12 11 11 11 10 9 8 6 4 3 5 7 8 10 10 10 11 11 11 16 18 17
Wind_Direction
257 251 280 296 306 316 333 344 31 247 269 282 136 149 182 220 213 163 142 140 146 153 150 147 146 142 142 144 143 145 144 137 144 143 182 37 42 342 21 110 105 74 35 14
262 261 270 298 313 320 340 346 321 279 262 273 141 124 166 208 203 163 147 147 152 153 149 149 156 153 157 159 158 158 156 162 176 164 163 210 256 280 266 84 126 119 64 357
293 300 299 298 312 323 328 300 273 268 261 329 38 136 157 187 202 166 157 154 156 162 161 160 169 168 171 171 174 177 175 175 181 184 212 252 225 259 261 74 111 88 48 331
303 304 295 296 304 304 299 295 303 300 293 324 304 262 220 206 215 182 178 165 165 167 168 169 175 178 181 181 182 179 172 176 176 190 232 268 279 294 328 3 74 75 292 261
286 288 288 292 299 313 319 340 3 7 0 342 287 230 205 191 199 189 182 172 169 169 174 175 181 186 189 187 183 175 168 172 178 195 220 250 283 321 2 17 9 339 270 234
288 290 293 293 295 318 320 352 23 23 13 325 252 225 165 177 182 176 172 172 172 175 177 176 183 183 188 187 182 169 165 169 176 196 220 226 262 311 320 317 302 290 281 261
287 283 293 292 278 290 289 295 328 332 227 245 241 207 125 138 153 160 164 171 177 178 181 179 184 184 188 193 185 174 162 165 178 195 207 214 224 257 259 254 267 277 296 307
299 297 258 254 269 279 275 288 292 310 281 210 217 127 123 128 134 148 158 165 174 179 183 184 187 188 189 193 185 175 157 161 176 193 192 194 211 254 271 306 346 323 305 309
292 287 233 261 290 290 292 303 311 306 309 333 43 114 120 132 142 154 160 164 176 185 186 187 188 187 186 185 174 165 148 159 179 192 178 186 206 235 284 318 285 271 281 294
291 302 293 265 266 258 277 302 315 320 328 354 31 32 142 153 158 166 173 176 183 187 189 189 184 183 175 171 155 146 145 161 179 195 201 213 193 207 219 241 272 294 294 286
294 294 291 283 287 294 264 273 296 315 327 332 14 117 147 160 166 175 182 184 187 193 193 186 177 169 165 159 150 151 156 166 182 203 208 233 228 240 240 237 243 251 259 270
307 294 301 318 344 334 299 281 275 285 316 314 335 86 98 136 159 175 183 179 183 187 190 176 164 156 161 167 164 165 170 180 188 194 195 202 215 229 244 254 253 256 260 263
332 313 300 317 1 343 318 294 285 274 277 293 311 131 164 180 168 159 165 166 168 170 182 175 156 158 167 174 174 176 181 190 191 188 190 199 210 223 230 242 254 261 266 268
296 284 288 289 248 223 258 272 278 273 269 283 289 264 195 203 190 169 170 177 183 172 171 178 157 156 166 172 171 177 189 191 190 188 193 201 210 224 234 239 244 253 261 265
281 281 289 289 256 235 247 254 260 265 272 280 292 299 290 155 146 154 178 182 192 176 175 178 169 162 169 175 174 182 192 190 193 192 205 209 210 217 226 236 240 247 255 266
275 282 295 292 284 271 273 272 274 274 275 277 283 304 47 80 89 93 216 212 201 196 196 186 180 176 178 184 188 192 194 191 182 195 213 216 215 222 229 234 239 245 249 256
274 275 280 286 293 290 284 296 299 294 288 287 287 2 62 102 97 99 278 259 232 215 207 193 184 183 182 187 190 195 192 190 188 195 208 214 214 222 227 239 245 250 260 265
268 272 278 280 284 280 287 277 286 286 310 332 352 2 29 71 99 236 246 265 271 250 224 194 186 183 183 187 190 193 193 192 197 200 207 212 215 224 225 229 239 246 252 259
272 260 264 275 279 277 293 336 345 354 2 8 29 31 31 25 332 353 81 111 261 255 221 197 200 200 187 188 188 187 198 196 201 206 206 211 214 220 225 234 239 244 249 257
269 245 254 265 275 287 314 146 221 307 347 7 30 22 8 354 338 41 49 325 293 273 242 208 214 213 186 184 183 186 197 201 205 208 204 204 206 213 224 236 243 248 251 258
245 237 243 264 272 284 45 96 187 215 48 355 9 12 358 4 347 347 351 359 358 350 331 274 236 225 196 178 179 190 200 206 206 204 201 198 198 204 219 228 233 240 248 256
243 244 243 257 273 322 14 35 55 47 19 9 4 5 6 2 360 3 9 17 14 4 358 354 347 313 233 178 179 195 209 209 205 206 207 205 202 216 224 217 226 235 244 255
270 287 295 267 191 130 86 98 108 72 46 22 15 14 14 15 17 19 23 22 21 18 12 7 4 356 357 257 186 207 209 202 211 213 214 216 216 220 227 230 236 241 242 249
311 335 320 21 101 105 104 108 95 78 63 48 39 33 32 32 30 29 29 25 21 20 15 12 10 10 8 358 316 244 220 208 215 224 226 228 230 234 234 234 240 244 247 250
293 248 250 212 125 115 94 90 89 78 65 55 49 46 40 38 35 33 33 28 22 20 17 15 11 6 3 358 348 334 303 251 243 246 247 249 248 247 245 241 240 243 247 250
323 335 302 100 133 126 128 117 92 83 76 68 57 49 43 39 32 32 31 26 21 18 16 12 7 4 0 356 350 343 334 316 285 270 265 264 261 258 254 251 249 235 233 238
Height
1495 1496 1494 1487 1481 1482 1487 1491 1499 1499 1490 1491 1497 1503 1504 1505 1505 1505 1507 1511 1515 1519 1521 1524 1527 1530 1532 1534 1537 1539 1541 1543 1545 1546 1548 1548 1549 1549 1549 1547 1545 1544 1543 1542
1491 1492 1485 1480 1478 1480 1484 1492 1497 1493 1487 1488 1496 1501 1502 1503 1504 1505 1507 1510 1514 1518 1521 1524 1527 1530 1532 1533 1536 1538 1540 1542 1544 1545 1546 1547 1547 1547 1547 1546 1544 1543 1541 1541
1487 1482 1478 1478 1480 1484 1487 1490 1491 1491 1486 1488 1496 1507 1504 1502 1503 1505 1507 1510 1513 1516 1519 1523 1526 1529 1531 1533 1536 1538 1540 1541 1543 1544 1545 1545 1545 1545 1546 1544 1543 1541 1540 1539
1482 1477 1478 1479 1481 1480 1489 1481 1482 1485 1493 1505 1504 1518 1510 1503 1503 1503 1506 1508 1511 1515 1518 1522 1525 1528 1530 1532 1534 1536 1538 1540 1541 1542 1542 1543 1544 1544 1544 1543 1542 1540 1539 1538
1482 1477 1477 1480 1478 1477 1480 1478 1485 1494 1503 1513 1507 1512 1508 1499 1502 1501 1503 1505 1509 1513 1516 1520 1523 1526 1529 1531 1533 1535 1536 1538 1539 1539 1540 1540 1541 1541 1541 1540 1539 1538 1537 1537
1478 1475 1474 1474 1473 1475 1476 1482 1493 1503 1517 1531 1508 1505 1508 1495 1494 1494 1498 1503 1507 1511 1514 1518 1521 1524 1527 1530 1532 1533 1534 1535 1536 1537 1537 1537 1538 1537 1537 1536 1536 1536 1536 1536
1483 1479 1477 1475 1476 1476 1478 1491 1515 1527 1536 1528 1493 1494 1495 1483 1484 1488 1494 1500 1504 1508 1512 1516 1519 1522 1525 1527 1529 1531 1531 1532 1533 1534 1535 1535 1535 1534 1534 1534 1534 1534 1534 1534
1493 1497 1481 1475 1474 1478 1476 1481 1501 1512 1512 1504 1486 1489 1485 1478 1483 1487 1491 1497 1502 1506 1509 1513 1516 1519 1522 1524 1527 1528 1529 1530 1531 1532 1532 1532 1532 1532 1532 1532 1532 1531 1531 1531
1487 1487 1473 1470 1469 1470 1475 1476 1469 1481 1486 1495 1491 1482 1483 1479 1482 1486 1489 1494 1499 1503 1506 1510 1513 1516 1519 1522 1524 1526 1527 1528 1529 1530 1530 1529 1529 1529 1529 1529 1529 1529 1529 1528
1474 1483 1473 1469 1468 1468 1470 1470 1473 1482 1495 1505 1505 1495 1489 1484 1483 1484 1487 1492 1496 1499 1503 1506 1510 1513 1516 1519 1521 1523 1524 1526 1527 1527 1527 1528 1527 1526 1526 1526 1526 1525 1525 1524
1470 1482 1478 1474 1477 1478 1476 1475 1475 1477 1480 1498 1514 1505 1475 1476 1478 1480 1484 1488 1492 1495 1498 1502 1506 1510 1513 1516 1518 1520 1522 1523 1524 1524 1525 1525 1525 1524 1524 1523 1523 1522 1521 1520
1471 1476 1483 1482 1478 1476 1473 1474 1474 1487 1489 1483 1490 1496 1470 1471 1474 1477 1479 1484 1488 1492 1495 1499 1503 1507 1511 1514 1516 1517 1519 1520 1520 1521 1521 1521 1521 1521 1520 1520 1520 1519 1518 1517
1474 1482 1493 1496 1499 1490 1486 1476 1472 1472 1479 1485 1494 1495 1473 1472 1473 1475 1479 1482 1486 1490 1494 1497 1500 1504 1508 1511 1513 1514 1515 1517 1518 1518 1518 1518 1518 1517 1517 1517 1516 1516 1515 1513
1475 1482 1491 1503 1504 1499 1495 1482 1472 1473 1480 1485 1485 1482 1474 1472 1472 1474 1478 1481 1485 1488 1492 1496 1498 1501 1505 1508 1510 1511 1513 1514 1515 1515 1515 1515 1514 1514 1514 1513 1513 1512 1511 1510
1475 1481 1479 1477 1477 1481 1480 1474 1468 1469 1469 1476 1473 1471 1467 1467 1469 1473 1476 1479 1483 1486 1489 1493 1496 1499 1502 1505 1506 1508 1509 1510 1511 1511 1511 1511 1511 1510 1510 1509 1509 1508 1507 1506
1474 1480 1479 1478 1471 1472 1472 1465 1463 1462 1462 1464 1466 1467 1463 1466 1470 1473 1475 1477 1480 1483 1486 1489 1492 1495 1498 1500 1502 1504 1505 1506 1506 1506 1507 1507 1507 1507 1506 1506 1505 1504 1503 1501
1473 1476 1481 1481 1470 1472 1480 1468 1462 1461 1458 1461 1468 1466 1464 1466 1469 1472 1474 1476 1478 1480 1483 1485 1488 1490 1493 1495 1497 1499 1500 1501 1501 1502 1502 1502 1502 1502 1502 1501 1501 1500 1499 1497
1471 1476 1478 1479 1477 1489 1471 1458 1459 1461 1460 1459 1460 1462 1463 1466 1469 1471 1473 1475 1476 1478 1480 1482 1484 1486 1488 1490 1492 1494 1495 1496 1496 1497 1497 1498 1498 1498 1498 1497 1496 1495 1493 1492
1467 1472 1477 1478 1479 1474 1464 1461 1463 1468 1468 1463 1463 1464 1465 1467 1469 1469 1471 1474 1476 1477 1478 1479 1481 1482 1483 1485 1487 1488 1490 1491 1491 1492 1492 1493 1493 1493 1493 1492 1491 1489 1488 1486
1467 1469 1476 1476 1481 1482 1469 1464 1464 1471 1480 1470 1468 1468 1469 1469 1472 1473 1473 1474 1474 1475 1475 1476 1477 1478 1479 1480 1481 1483 1483 1485 1485 1486 1487 1488 1488 1487 1487 1487 1486 1485 1483 1481
1477 1473 1475 1475 1475 1468 1466 1464 1467 1483 1487 1476 1472 1472 1472 1472 1474 1474 1472 1472 1472 1472 1473 1473 1474 1475 1475 1476 1476 1477 1479 1479 1480 1481 1482 1482 1481 1481 1481 1481 1480 1479 1477 1475
1469 1471 1471 1472 1480 1483 1471 1469 1476 1482 1477 1476 1476 1475 1474 1474 1474 1473 1472 1471 1471 1471 1470 1470 1470 1471 1472 1472 1472 1473 1474 1475 1477 1477 1477 1476 1475 1474 1474 1474 1473 1472 1471 1469
1456 1457 1458 1464 1470 1472 1471 1474 1477 1478 1478 1478 1478 1477 1476 1475 1475 1475 1474 1473 1472 1471 1470 1469 1469 1468 1469 1469 1469 1469 1470 1471 1472 1472 1471 1470 1469 1469 1468 1467 1466 1465 1464 1462
1453 1453 1457 1464 1467 1472 1474 1476 1477 1479 1479 1479 1479 1478 1478 1478 1477 1477 1476 1475 1473 1472 1471 1469 1468 1467 1467 1467 1466 1466 1466 1466 1466 1466 1466 1465 1464 1462 1461 1460 1459 1458 1457 1456
1452 1455 1458 1463 1469 1473 1477 1478 1478 1479 1479 1479 1480 1480 1480 1480 1480 1479 1478 1477 1476 1474 1472 1470 1469 1468 1467 1466 1465 1464 1463 1463 1462 1462 1461 1460 1458 1456 1455 1453 1451 1450 1449 1449
1452 1455 1457 1463 1466 1469 1476 1478 1478 1479 1480 1481 1482 1483 1483 1482 1482 1481 1480 1479 1477 1476 1474 1472 1470 1468 1467 1465 1463 1462 1461 1459 1458 1457 1456 1454 1453 1451 1449 1446 1444 1442 1441 1440